Location: Csohesd
(46.2500°N, 22.6167°E)
Time: 23:07:58
(UTC+00:00)

DMSP 9532 - Visible Passes

Search period start: 10 August 2022 00:00
Search period end: 20 August 2022 00:00
Orbit: 768 x 828 km, 98.6° (Epoch: 10 August)

Date Brightness Start Highest point End Pass type
(mag) Time Alt. Az. Time Alt. Az. Time Alt. Az.
10 Aug 7.3 19:17:41 10° N 19:21:59 27° WNW 19:26:13 10° WSW visible
11 Aug 6.3 18:50:05 10° N 18:54:58 44° WNW 18:59:47 10° SW visible
12 Aug 5.3 18:22:41 10° N 18:27:51 75° WNW 18:32:55 10° SSW visible
12 Aug 8.2 20:04:34 10° NNW 20:06:36 12° NW 20:08:37 10° WNW visible
13 Aug 7.8 19:36:07 10° NNW 19:39:46 20° WNW 19:43:22 10° WSW visible
14 Aug 7.0 19:08:19 10° N 19:12:49 32° WNW 19:17:17 10° SW visible
15 Aug 5.9 18:40:47 10° N 18:45:46 53° WNW 18:50:42 10° SW visible
16 Aug 5.1 18:13:26 10° NNE 18:18:36 90° W 18:23:41 10° SSW visible
16 Aug 8.0 19:54:48 10° NNW 19:57:30 15° NW 20:00:11 10° W visible
17 Aug 7.5 19:26:39 10° N 19:30:38 23° WNW 19:34:34 10° WSW visible
18 Aug 6.6 18:58:57 10° N 19:03:38 37° WNW 19:08:17 10° SW visible
19 Aug 5.6 18:31:28 10° N 18:36:32 64° WNW 18:41:33 10° SSW visible
19 Aug 8.4 20:14:25 10° NW 20:15:10 10° NW 20:15:56 10° WNW visible
